EHI
0 0 0 0 0 0 0 0 0 0 0 0 0 0 0 0 2 6 7 6 7 9 8 7 6 5 7 20 40 51 50 44 40 35 27 21 14 8 5 1 0 0 0 0 0 1 2 2 1
0 0 0 0 0 0 0 0 0 0 0 0 0 0 1 1 4 7 9 8 9 9 8 7 8 6 8 19 36 48 49 45 41 35 27 20 14 9 5 2 0 0 0 1 1 1 1 1 2
0 0 0 0 0 0 1 2 2 1 0 0 1 1 3 5 6 9 10 11 11 10 8 9 9 8 10 17 29 40 44 44 40 33 25 19 15 11 7 3 1 0 1 2 2 2 1 1 2
0 0 0 0 0 1 2 4 4 2 1 1 2 3 7 11 12 12 13 12 12 11 9 9 9 9 10 15 23 30 34 36 35 28 20 17 15 12 9 5 2 1 2 3 3 3 2 2 3
0 0 0 0 1 2 4 5 4 3 3 3 3 6 15 22 23 20 16 12 11 11 10 10 9 8 8 12 18 23 26 27 27 24 18 15 14 11 9 6 4 3 4 4 3 3 2 2 2
0 0 0 1 2 4 6 6 4 4 5 3 3 10 25 38 38 28 18 13 10 9 9 9 8 7 8 11 17 21 23 23 23 22 17 14 11 9 7 6 5 4 5 5 4 3 2 1 1
0 0 0 1 3 5 8 8 6 5 4 2 2 11 32 52 52 37 24 16 10 8 8 8 7 8 10 11 16 20 21 22 23 21 16 12 9 6 5 5 5 5 5 4 3 2 1 0 0
0 0 0 0 2 5 7 9 9 5 3 3 4 14 39 63 64 49 34 23 14 9 9 8 8 8 9 10 14 18 20 21 22 19 14 10 7 4 3 5 7 6 4 3 2 1 1 0 0
0 0 0 0 2 4 5 7 7 5 4 7 11 26 53 73 73 59 43 30 20 14 11 10 9 7 6 8 13 16 17 17 17 14 11 7 4 3 4 9 12 8 2 1 1 1 0 0 0
0 0 0 1 3 4 5 6 6 4 5 9 19 40 64 77 72 58 43 31 23 17 13 12 11 8 6 8 13 15 15 13 12 11 11 8 6 5 8 15 15 9 3 1 1 1 0 0 0
1 1 1 1 3 5 6 8 7 7 7 9 22 45 65 69 60 46 34 27 21 16 13 12 12 12 11 11 13 15 15 13 11 12 13 12 10 8 11 14 14 10 7 6 5 3 1 1 1
1 1 1 1 3 5 7 9 11 12 12 12 23 44 58 58 48 35 26 21 17 15 13 13 13 14 16 16 14 13 13 12 11 12 12 12 11 10 11 13 13 12 12 12 11 7 4 3 3
0 0 0 1 2 4 6 10 13 16 16 17 25 38 46 46 40 29 21 17 15 15 15 14 15 17 18 19 16 14 13 11 9 9 9 8 8 9 11 14 15 14 15 16 15 12 10 8 8
0 0 0 0 2 3 6 9 13 16 17 19 24 30 36 38 33 25 19 15 14 15 15 15 18 20 20 19 19 17 14 9 6 5 4 3 4 5 8 12 13 12 14 16 17 15 13 12 12
0 0 0 1 2 3 4 8 12 15 17 20 21 25 33 34 29 21 16 15 15 16 17 17 18 20 19 17 17 16 10 5 3 2 1 0 1 2 5 8 9 9 10 14 18 18 17 15 14
0 0 0 1 2 3 2 6 12 15 16 18 20 24 32 35 28 20 16 16 18 20 21 20 18 18 18 16 16 14 10 6 4 3 2 0 0 1 3 5 6 7 9 12 16 19 20 18 16
0 0 0 1 2 2 1 3 9 12 11 13 16 21 29 33 29 22 18 19 22 25 25 23 21 20 19 18 17 17 16 13 9 6 4 3 2 3 4 6 7 8 9 10 11 17 20 18 16
0 0 0 0 1 1 0 2 6 8 7 9 12 16 23 29 28 21 19 21 24 26 26 25 25 25 24 21 20 19 18 15 12 9 8 7 7 6 6 8 10 9 8 7 7 10 12 12 12
0 0 0 0 0 0 0 2 4 6 6 8 13 16 20 24 22 15 14 18 23 25 26 26 27 29 27 22 19 18 16 14 12 11 11 10 9 9 8 9 11 10 8 6 4 4 5 6 7
0 0 0 0 0 0 0 1 2 4 5 8 14 17 19 19 15 10 10 14 18 21 23 24 26 27 24 20 16 14 12 12 12 12 13 12 10 8 8 9 9 9 7 5 3 2 3 4 4
0 0 0 0 0 0 0 0 1 2 3 5 11 16 18 15 11 9 10 11 15 19 22 23 24 22 18 15 12 10 10 11 11 11 11 10 8 6 6 6 6 6 4 3 2 1 2 2 2
0 0 0 0 0 0 0 0 0 1 1 2 6 13 16 14 11 10 9 8 11 17 23 25 22 17 13 11 10 9 9 10 10 9 7 6 4 3 3 4 4 3 2 1 1 0 0 1 1
0 0 0 0 0 0 0 0 0 1 1 1 3 9 13 14 13 12 10 7 8 16 23 25 20 12 10 10 8 7 8 8 7 5 4 3 2 2 2 2 2 2 1 0 0 0 0 0 0
0 0 0 0 0 0 0 0 1 1 2 2 2 5 9 12 13 14 12 8 8 14 20 20 14 9 7 7 6 5 5 5 4 4 3 2 1 1 0 1 1 1 0 0 0 0 0 0 0
0 0 0 0 0 0 0 1 2 1 1 1 2 3 7 10 11 11 10 8 9 13 15 13 8 4 4 4 3 2 2 3 3 3 2 1 0 0 0 0 0 0 0 0 0 0 0 0 0
0 0 0 0 0 0 0 2 3 1 0 0 1 3 6 8 8 9 9 8 9 11 10 7 4 1 1 2 2 1 1 2 3 2 1 0 0 0 0 0 0 0 0 0 0 0 0 0 0
0 0 0 0 0 0 1 2 2 1 0 0 1 3 6 7 7 7 9 10 9 7 5 3 1 0 0 1 1 0 1 1 1 1 0 0 0 0 0 0 0 0 0 0 0 0 0 0 0
0 0 0 0 0 0 0 1 2 2 1 0 1 3 6 7 6 7 9 9 8 4 2 1 0 0 0 0 1 1 0 0 0 1 1 0 0 0 0 0 0 0 0 0 0 0 0 0 0
0 0 0 0 0 0 0 1 2 2 1 1 1 4 6 6 7 8 9 9 6 3 1 0 0 1 1 1 2 2 1 0 0 1 2 1 0 0 0 0 0 0 0 0 0 0 0 0 0
0 0 0 0 0 0 0 0 1 1 1 1 2 4 6 6 7 9 10 9 6 3 1 0 1 1 1 1 2 2 1 0 0 1 2 1 0 0 0 0 0 0 0 0 0 0 0 0 0
Wind_Speed
8 7 7 6 8 7 5 4 2 4 5 5 5 3 3 4 4 7 8 13 14 15 15 15 12 11 12 13 13 13 14 14 14 14 13 12 12 11 10 9 8 8 7 7 7 7 7 8 8
5 6 7 7 9 8 6 4 4 4 5 8 7 4 4 6 7 9 11 13 16 15 15 14 14 12 12 13 13 13 14 14 13 13 12 12 11 10 9 9 8 7 7 7 7 7 7 7 7
6 7 8 7 7 6 5 5 4 6 7 7 6 4 4 6 7 8 11 16 15 14 14 14 14 12 12 13 13 13 13 13 13 12 12 11 10 9 9 8 8 7 7 7 6 6 6 6 6
6 7 7 8 7 1 2 5 6 9 8 6 7 8 7 5 5 10 16 16 15 14 14 15 13 13 12 12 12 12 12 12 12 11 11 10 9 9 8 8 8 7 7 7 6 6 6 5 5
7 7 8 8 6 4 3 4 5 8 7 7 6 8 8 5 9 15 16 15 14 14 14 16 13 12 12 12 12 12 11 11 10 10 10 9 9 8 8 7 7 7 7 6 6 6 5 5 4
7 7 9 9 7 5 4 5 6 6 8 8 7 8 7 6 12 15 15 13 13 13 13 14 13 12 12 12 11 11 11 10 9 9 9 8 8 8 7 7 6 6 6 6 6 6 5 4 4
7 7 6 6 8 7 5 4 5 7 8 6 5 7 9 9 11 12 13 12 12 12 12 12 13 12 12 10 10 10 10 9 9 8 8 7 7 7 7 6 6 6 6 6 6 6 5 5 4
5 5 7 6 7 7 6 5 4 4 6 5 3 6 9 11 12 12 12 11 11 10 10 10 11 11 11 11 11 9 9 9 9 8 8 8 7 8 7 8 7 6 6 6 6 6 6 5 5
6 8 6 5 5 6 7 7 5 3 7 5 3 5 12 16 14 13 12 11 10 9 9 9 9 9 9 9 10 10 9 8 9 9 9 9 8 8 8 6 6 6 7 7 7 7 6 7 8
7 5 3 2 1 3 6 7 8 8 9 7 8 10 16 15 15 14 13 12 11 10 9 8 8 8 8 7 8 7 7 8 7 6 8 7 4 4 4 6 5 6 7 8 8 8 9 11 8
4 0 3 2 1 1 6 6 6 8 7 6 10 14 15 15 14 13 12 11 10 9 8 7 6 6 6 5 5 4 3 4 5 4 5 3 3 4 4 3 5 7 8 7 7 9 9 8 5
3 2 1 1 1 3 5 6 5 3 4 5 9 14 15 14 13 12 11 10 9 8 7 5 5 4 4 3 3 3 2 2 2 2 3 3 3 3 3 3 3 3 3 4 4 5 5 5 6
4 4 2 2 2 3 5 5 5 5 5 7 10 13 13 12 11 10 9 8 8 7 7 6 5 4 3 3 2 2 2 1 2 1 2 3 3 3 3 3 3 4 3 4 4 5 4 5 6
4 4 3 3 4 5 6 6 5 6 7 9 11 11 12 11 11 10 9 8 7 7 6 5 5 4 4 3 2 2 2 1 1 1 1 2 3 2 3 3 3 3 3 4 4 5 4 4 4
5 6 7 5 4 5 6 6 5 7 8 10 11 10 10 10 9 8 8 7 6 6 5 5 5 4 4 4 3 2 1 1 0 0 1 2 2 2 3 3 3 3 4 4 4 5 4 5 5
8 8 8 6 4 5 8 7 8 7 8 9 10 10 9 8 8 7 6 6 6 6 5 4 4 5 5 3 2 2 1 1 1 0 0 0 1 2 3 3 3 3 4 4 4 4 4 4 4
10 8 6 7 5 5 7 4 8 7 8 8 8 9 8 8 7 6 6 5 5 5 5 5 4 4 4 5 4 3 2 2 1 1 1 1 1 2 2 2 2 4 3 3 5 3 3 4 4
6 6 6 6 6 7 7 5 7 7 8 8 8 8 8 8 7 6 5 5 4 4 5 5 5 4 4 4 4 3 3 2 1 1 1 1 1 1 2 2 2 3 3 3 3 4 3 4 3
3 5 5 3 3 6 7 6 6 7 8 8 8 8 7 6 6 5 5 4 4 4 5 5 5 4 4 3 2 2 2 1 1 1 2 1 1 1 2 2 2 2 2 3 4 4 4 4 2
6 7 5 4 3 4 5 6 5 7 8 7 8 8 7 7 6 5 4 4 4 4 5 5 5 4 3 2 1 1 1 1 1 1 2 1 1 1 1 2 2 2 2 3 3 3 3 3 2
7 7 5 4 5 5 6 8 8 7 6 6 6 6 7 7 6 6 5 5 5 5 5 4 4 4 3 3 2 2 2 2 2 2 2 2 2 2 2 2 2 3 3 3 3 4 4 3 3
6 4 5 6 8 7 8 7 7 8 7 7 7 6 6 6 6 5 5 5 5 4 4 4 4 4 3 3 2 2 2 1 1 1 1 1 1 2 2 2 2 3 3 2 3 3 4 4 4
2 2 5 7 9 8 8 9 4 8 7 6 6 6 5 5 5 5 5 5 5 5 5 4 4 4 3 3 2 2 1 1 1 1 2 1 2 2 2 2 2 2 2 2 3 3 4 3 4
3 5 5 8 9 10 6 8 4 4 4 4 4 5 5 4 5 5 5 4 4 5 5 5 5 4 3 3 2 1 1 2 2 1 1 1 1 1 2 2 2 2 2 2 3 3 3 3 4
7 8 7 8 8 6 3 7 1 3 1 1 3 3 4 5 5 5 5 5 5 5 5 4 5 4 3 3 2 2 1 2 2 1 1 0 0 1 2 3 2 2 2 2 2 2 3 3 3
8 10 9 8 7 4 5 5 2 4 3 2 2 3 5 5 5 5 5 5 5 5 5 4 4 4 4 3 3 2 1 1 1 1 0 0 1 2 2 2 2 2 2 2 2 3 2 2 3
7 8 7 10 10 9 4 3 4 4 4 4 3 4 5 5 5 5 5 5 5 5 5 4 4 4 3 3 3 2 1 1 2 1 0 1 1 1 2 2 2 3 3 3 3 2 2 2 3
6 5 5 8 8 9 6 5 3 6 5 5 4 4 5 5 5 5 5 5 5 4 4 3 3 3 3 2 2 2 1 1 1 1 2 2 2 2 2 3 3 3 3 3 3 3 3 3 3
5 6 7 6 7 8 8 2 4 3 4 4 4 5 5 4 5 6 5 5 5 5 4 3 3 3 3 3 2 2 1 1 1 1 2 1 2 2 2 2 2 3 3 3 3 4 3 3 3
5 6 7 7 7 7 8 2 6 3 4 4 5 5 5 5 5 6 6 5 5 4 4 3 3 3 3 2 2 2 2 2 1 2 1 1 1 1 2 2 2 3 3 3 3 3 3 3 4
Wind_Direction
229 220 219 224 230 226 212 144 148 140 131 116 132 131 92 52 19 72 114 139 135 138 138 146 146 143 139 134 132 133 136 140 142 143 144 145 145 145 144 140 136 132 129 126 125 125 124 125 126
229 210 219 230 239 215 178 152 163 127 109 127 127 124 107 78 62 104 134 136 140 139 143 146 143 145 141 138 135 134 137 139 140 141 142 144 146 147 147 144 141 138 135 133 132 131 130 130 131
218 228 235 226 232 233 149 136 128 117 138 155 137 98 67 79 109 126 136 141 141 141 142 135 146 145 142 141 140 139 140 140 141 142 143 145 147 147 148 149 148 146 142 139 139 138 138 143 144
214 211 228 233 206 165 82 118 129 142 147 156 145 114 87 63 118 131 140 145 143 144 141 138 150 146 144 144 145 145 143 144 145 145 146 147 148 148 150 155 156 154 151 150 147 148 150 151 151
232 230 214 208 186 138 135 139 165 165 149 150 151 114 93 66 112 131 144 146 145 143 140 140 148 148 148 147 148 148 147 148 149 148 148 150 150 151 154 158 161 161 162 161 159 158 158 160 162
218 228 218 193 164 149 145 162 179 163 143 146 151 122 91 109 128 139 144 147 145 144 141 138 147 149 151 150 147 148 150 152 153 151 151 152 154 157 161 165 168 169 172 172 169 167 167 167 174
242 230 222 187 160 158 135 159 181 163 150 138 146 124 118 130 134 141 143 146 145 147 143 149 154 156 155 153 152 150 151 155 157 152 153 159 162 166 170 173 177 179 181 182 182 182 184 183 189
269 240 196 186 176 147 137 154 148 166 122 113 157 142 139 141 143 141 142 144 146 147 147 153 158 157 163 161 158 157 156 157 158 160 166 170 174 181 184 192 183 194 196 197 198 198 200 203 209
251 236 187 169 175 139 148 160 141 136 128 123 88 81 119 137 144 145 145 148 147 148 151 158 160 162 170 163 155 167 165 165 173 175 177 192 199 191 192 194 171 209 213 212 210 211 212 218 211
242 220 114 67 20 136 157 167 154 167 157 141 120 110 125 143 151 155 156 158 157 157 161 163 165 168 173 162 161 175 178 170 197 184 188 207 206 221 232 136 189 220 225 223 219 220 219 230 218
235 58 89 104 36 167 158 153 167 182 171 158 149 141 146 153 159 163 163 162 160 160 163 163 168 175 177 169 172 175 177 168 193 189 202 216 221 221 230 205 196 213 220 228 205 217 228 230 240
188 83 35 70 116 188 162 151 152 171 107 115 142 148 155 161 165 169 164 161 160 161 161 162 159 169 186 173 168 177 178 173 185 175 222 217 225 236 240 244 252 242 234 244 249 251 246 253 251
181 127 105 120 150 141 147 142 134 119 103 121 137 150 158 163 164 163 160 158 160 161 162 159 157 158 163 171 192 168 170 177 166 203 222 251 246 246 251 255 258 264 263 245 247 255 256 255 249
128 134 136 138 133 150 154 140 154 122 130 138 146 155 160 162 165 163 162 164 166 165 165 155 155 148 156 157 156 144 145 142 211 208 242 263 269 270 270 259 258 264 268 275 269 261 251 252 257
165 167 154 145 159 157 175 165 152 132 145 149 153 158 160 163 165 167 168 170 168 165 162 155 151 150 160 154 150 146 139 143 170 170 255 276 283 278 273 272 264 274 272 263 260 261 257 252 248
191 198 181 143 173 174 226 180 137 149 162 161 161 160 162 163 169 166 167 171 166 163 157 161 164 158 158 149 145 137 136 125 114 153 201 312 310 283 275 278 286 288 275 268 263 256 260 264 269
196 200 178 153 175 191 226 179 140 164 177 173 171 168 170 165 167 164 170 170 165 162 158 162 159 160 156 151 155 150 137 121 118 105 67 42 333 322 292 291 301 278 273 274 275 271 268 268 270
192 193 184 180 160 207 215 188 156 179 192 187 182 179 180 176 171 164 165 163 160 157 154 155 155 158 161 159 161 154 140 133 135 114 73 37 19 352 315 302 331 304 290 284 282 278 263 263 266
219 218 205 162 145 218 215 204 182 187 200 200 196 191 191 183 167 163 165 161 163 165 163 164 162 157 164 162 174 167 153 143 138 113 92 84 56 31 337 333 340 318 316 305 290 280 268 261 266
217 215 198 161 153 234 215 217 201 199 208 208 205 200 194 182 170 168 169 170 179 180 173 171 170 160 168 151 154 132 128 146 116 89 96 74 55 24 359 350 331 340 317 308 305 288 279 272 268
217 231 219 195 170 206 220 215 200 192 202 206 210 205 196 188 183 174 179 187 188 186 182 178 167 158 163 157 168 148 160 180 163 149 115 70 55 51 26 11 3 344 320 333 321 307 287 276 266
222 212 224 208 220 212 222 249 188 185 194 205 208 203 198 188 185 182 178 180 185 180 173 166 157 150 150 161 172 183 202 198 141 138 95 89 64 43 33 10 10 340 330 334 313 336 310 289 276
283 172 219 226 245 254 224 256 189 177 203 208 209 203 199 188 182 180 177 176 177 171 164 154 148 141 140 148 157 201 209 163 140 147 127 140 92 62 44 23 1 330 326 344 331 324 312 307 301
166 188 208 229 240 244 240 260 241 182 209 202 197 199 195 186 174 166 160 160 161 161 156 149 146 135 137 148 150 157 145 137 138 154 143 169 103 72 52 23 2 333 345 341 326 317 312 315 309
214 228 231 227 231 246 182 251 308 72 89 191 194 188 177 168 159 155 152 154 152 152 152 152 144 133 127 124 116 127 147 167 164 177 147 322 49 48 37 12 2 349 343 326 321 311 320 312 308
226 249 267 276 274 264 196 248 91 94 108 138 161 144 137 140 138 138 135 136 135 137 140 142 137 125 122 113 105 117 145 173 111 102 354 18 12 34 27 357 3 357 341 327 323 297 310 317 310
237 242 283 280 278 277 249 188 155 145 142 140 139 136 135 133 132 127 120 117 120 124 122 126 127 122 121 115 122 128 123 83 86 126 188 69 51 42 24 3 9 7 355 343 318 325 320 318 305
275 268 245 260 276 275 263 242 216 172 171 158 148 139 130 130 127 122 114 107 101 104 106 109 125 133 135 137 135 119 121 121 126 129 68 51 38 25 7 11 15 10 357 347 331 326 346 327 325
216 226 253 268 278 281 282 298 57 147 165 164 147 135 134 133 133 129 122 116 112 113 113 120 126 130 142 142 134 119 108 102 96 82 80 67 46 23 4 5 11 7 358 355 341 338 337 335 337
271 265 253 262 267 268 282 332 82 97 130 141 137 131 132 133 134 133 129 126 124 120 119 127 129 137 149 138 129 113 102 94 82 71 61 72 60 22 13 1 9 6 6 359 345 339 342 340 341